Location: Columbia
(38.9520°N, 92.3340°W)
Time: 04:52:36
(UTC-05:00)

Cosmos 1603 - Visible Passes

Search period start: 31 October 2014 00:00
Search period end: 09 November 2014 23:00
Orbit: 830 x 861 km, 71.0° (Epoch: 30 October)

Date Brightness Start Highest point End Pass type
(mag) Time Alt. Az. Time Alt. Az. Time Alt. Az.
31 Oct 4.6 04:54:57 31° NNE 04:57:10 45° ENE 05:02:32 10° SE visible
31 Oct 4.7 06:36:58 12° NW 06:40:57 24° W 06:45:20 10° SSW visible
31 Oct 3.9 19:41:57 10° SSW 19:47:39 72° WNW 19:53:25 10° NNE visible
31 Oct 6.5 21:30:57 10° WNW 21:32:51 12° NW 21:34:44 10° NNW visible
01 Nov 4.7 04:43:09 43° ENE 04:43:20 44° ENE 04:48:41 10° SE visible
01 Nov 4.7 06:25:10 20° WNW 06:27:08 25° WSW 06:31:35 10° SSW visible
01 Nov 3.9 19:28:07 10° SSW 19:33:50 74° WNW 19:39:36 10° NNE visible
01 Nov 6.5 21:16:54 10° WNW 21:18:59 12° NW 21:21:04 10° NNW visible
02 Nov 5.2 03:31:22 32° ESE 03:31:22 32° ESE 03:34:49 10° SE visible
02 Nov 4.6 05:13:23 25° WSW 05:13:23 25° WSW 05:17:50 10° SSW visible
02 Nov 3.9 18:14:17 10° SSW 18:20:00 77° WNW 18:25:47 10° NNE visible
02 Nov 6.5 20:02:52 10° WNW 20:05:08 12° NW 20:07:23 10° NNW visible
03 Nov 5.9 03:19:33 17° SE 03:19:33 17° SE 03:20:57 10° SE visible
03 Nov 5.0 05:01:33 21° SW 05:01:33 21° SW 05:04:05 10° SSW visible
03 Nov 3.9 18:00:27 10° SSW 18:06:11 79° WNW 18:11:57 10° NNE visible
03 Nov 6.4 19:48:51 10° WNW 19:51:16 13° NW 19:53:42 10° NNW visible
04 Nov 5.7 04:49:39 13° SSW 04:49:39 13° SSW 04:50:20 10° SSW visible
04 Nov 3.9 17:46:37 10° SSW 17:52:21 81° WNW 17:58:08 10° NNE visible
04 Nov 6.4 19:34:51 10° WNW 19:37:25 13° NW 19:39:59 10° NNW visible
05 Nov 3.9 17:32:47 10° SSW 17:38:32 84° WNW 17:44:18 10° NNE visible
05 Nov 6.4 19:20:51 10° WNW 19:23:33 13° NW 19:26:16 10° NNW visible
06 Nov 6.3 19:06:52 10° WNW 19:09:42 14° NW 19:12:32 10° NNW visible
07 Nov 6.3 18:52:53 10° W 18:55:50 14° NW 18:58:48 10° NNW visible
08 Nov 6.3 18:38:54 10° W 18:41:59 15° NW 18:45:04 10° NNW visible
09 Nov 6.2 18:24:56 10° W 18:28:07 15° NW 18:31:19 10° NNW visible
